{"data":{"norad_id":65470,"epoch":"2026-05-24T14:46:12.694944Z","epoch_age_seconds":118944,"freshness":"FRESH","line1":"1 65470U 25195N   26144.61542471  .00021923  00000+0  71561-3 0  9990","line2":"2 65470  53.1561 265.1313 0001937  91.4077 268.7147 15.31723481 41627","mean_motion":15.31723481,"eccentricity":0.0001937,"inclination_deg":53.1561,"raan_deg":265.1313,"arg_perigee_deg":91.4077,"mean_anomaly_deg":268.7147,"bstar":0.00071561,"rev_number":4162,"period_min":94.011746758617,"perigee_km":469.34338656469,"apogee_km":471.99661439668,"semimajor_km":6848.8070004807,"source":"CELESTRAK","updated_at":"2026-05-25T13:38:20.814440Z"}}